                ,  0.721,  0.869,  1.017,  1.165,  1.312,  1.460,  1.608,  1.756,  1.904,  2.052,  2.199,  2.347,  2.495,  2.643,  2.791,  2.938,  3.086,  3.234,  3.382,  3.530,  3.677,  3.825,  3.973,  4.121,  4.269,  4.417,  4.564,  4.712,  4.860,  5.008,  5.156,  5.303
1999/07/26 00:00,  999.0,   10.9,    8.8,  999.0,  999.0,  999.0,    9.0,    9.4,  999.0,   12.4,   12.4,  999.0,   11.8,  999.0,  999.0,  999.0,  999.0,  999.0,  999.0,  999.0,  999.0,   10.5,   11.0,  999.0,  999.0,    7.5,  999.0,    8.2,  999.0,  999.0,    6.9,  999.0
1999/07/26 00:10,   10.7,   11.1,   10.2,  999.0,  999.0,    8.7,   10.0,   10.8,   11.1,   11.7,   12.0,   11.5,  999.0,  999.0,  999.0,   11.7,   12.4,   12.3,   12.3,  999.0,  999.0,  999.0,  999.0,   10.2,    9.8,    8.6,  999.0,  999.0,    8.7,    8.1,    7.1,  999.0
1999/07/26 00:20,   11.7,   11.8,   10.9,    9.2,    9.1,  999.0,    8.8,    9.8,   10.2,   11.0,   11.8,  999.0,  999.0,   12.4,  999.0,  999.0,   13.2,  999.0,  999.0,  999.0,  999.0,  999.0,  999.0,    9.6,  999.0,    7.9,    8.7,    9.6,    8.6,    7.3,    6.8,  999.0
1999/07/26 00:30,   10.9,   12.1,   11.1,    9.7,    9.5,    9.2,    8.8,    9.7,   10.6,   11.4,   12.0,   12.2,  999.0,  999.0,   12.6,  999.0,   12.7,   13.3,  999.0,  999.0,  999.0,  999.0,   11.4,   11.3,  999.0,  999.0,   11.5,   10.7,  999.0,    8.6,    8.1,    7.3
1999/07/26 00:40,    9.0,   11.1,   11.6,   10.2,    9.4,    9.4,    8.4,    8.7,    9.0,    8.9,   10.1,   11.1,  999.0,  999.0,  999.0,   12.5,   13.0,   12.8,   12.9,  999.0,  999.0,  999.0,   13.6,  999.0,  999.0,  999.0,  999.0,   14.1,  999.0,   10.4,   10.8,  999.0
1999/07/26 00:50,    8.9,    9.5,   11.4,   11.6,   10.1,   10.2,   10.0,    8.9,  999.0,    8.5,    9.5,  999.0,   10.8,  999.0,  999.0,   13.0,   13.2,   12.8,  999.0,  999.0,  999.0,  999.0,   12.2,   11.0,   10.9,  999.0,  999.0,   11.1,   10.8,    9.4,    8.3,    8.3
1999/07/26 01:00,    9.3,    8.9,   10.2,   12.1,   11.3,   10.9,    9.4,    8.6,    7.8,    8.5,    9.2,    9.9,   10.7,   12.2,  999.0,   13.3,   13.4,   13.6,   13.1,  999.0,  999.0,   12.9,   13.3,  999.0,   12.2,   12.9,   12.9,   11.5,   10.0,    8.0,    6.5,    5.4
1999/07/26 01:10,    8.1,    8.4,  999.0,   12.7,   11.6,   11.1,    9.0,    8.1,  999.0,  999.0,    9.4,    9.7,  999.0,   11.8,   12.0,  999.0,   11.9,   13.0,  999.0,  999.0,  999.0,  999.0,   13.0,   12.3,   12.9,   13.6,   12.7,   11.9,    9.2,    8.0,  999.0,  999.0
1999/07/26 01:20,    7.1,    7.3,   11.4,   12.5,   11.9,   10.8,   10.1,   10.1,    9.6,   10.0,   10.2,   10.9,   11.0,   11.8,   12.3,   12.6,   12.4,  999.0,  999.0,   12.5,  999.0,  999.0,   12.0,   11.3,   12.1,  999.0,   12.3,   11.3,  999.0,    7.8,    7.2,  999.0
1999/07/26 01:30,    7.0,    7.4,   11.2,   13.4,   13.0,   11.7,   10.5,   10.3,   10.3,    9.7,   10.1,  999.0,   10.2,  999.0,   11.5,   11.3,  999.0,   11.1,  999.0,  999.0,  999.0,  999.0,   11.7,   11.3,   11.7,  999.0,   12.2,   11.5,   11.2,  999.0,    7.6,  999.0
1999/07/26 01:40,    7.0,    8.4,   12.4,   13.6,   13.6,   13.0,   11.6,   10.4,   10.1,   10.2,    9.8,    3.9,  999.0,  999.0,   10.8,   11.3,  999.0,  999.0,  999.0,  999.0,   13.9,   12.8,   12.7,   12.5,   12.3,  999.0,   13.7,   12.9,   12.6,   11.3,    9.9,    8.6
1999/07/26 01:50,    7.2,    8.7,   12.1,   13.7,   13.9,   13.3,   12.6,   11.4,   11.0,   10.5,   10.4,    9.7,  999.0,  999.0,  999.0,  999.0,  999.0,   12.3,  999.0,  999.0,  999.0,   13.4,   13.1,   12.7,  999.0,  999.0,   13.8,   14.0,  999.0,   13.0,  999.0,   11.0
1999/07/26 02:00,    9.3,   11.3,   13.2,   14.1,   13.8,   13.2,   11.8,   11.6,   10.6,    9.9,    9.7,    9.7,   10.0,   10.8,  999.0,   11.9,  999.0,   12.4,   13.0,  999.0,  999.0,  999.0,   12.6,   11.8,   13.1,  999.0,  999.0,  999.0,   14.1,   13.2,   12.1,   10.4
1999/07/26 02:10,    8.8,   10.8,   12.9,   14.0,   12.9,   12.6,   11.9,   11.5,   10.2,    9.2,  999.0,    9.3,  999.0,   11.4,  999.0,  999.0,  999.0,  999.0,   13.6,  999.0,  999.0,  999.0,   12.6,   11.8,  999.0,  999.0,  999.0,  999.0,  999.0,   11.5,   11.3,   10.5
1999/07/26 02:20,    6.7,   10.1,   12.7,   13.6,   12.8,   12.1,   11.8,   11.1,    9.9,    8.8,    8.6,    8.7,   10.4,   11.4,   12.1,   12.3,  999.0,   13.4,   13.7,  999.0,  999.0,  999.0,   12.9,   12.9,   12.3,   11.3,   11.9,  999.0,  999.0,  999.0,   10.0,  999.0
1999/07/26 02:30,    6.6,    9.9,   12.3,   14.0,   12.8,   12.4,   11.9,   11.5,   10.7,    9.5,    8.9,   10.1,   11.3,  999.0,   12.5,   12.9,  999.0,  999.0,   14.0,  999.0,  999.0,  999.0,   13.6,   12.9,   11.9,   11.3,  999.0,  999.0,  999.0,   12.0,  999.0,  999.0
1999/07/26 02:40,    6.4,   10.6,   12.9,   13.8,   12.9,   12.6,   12.1,   11.2,   10.5,    9.5,    9.9,   10.3,   11.0,   12.0,  999.0,   12.1,   12.8,  999.0,   14.2,  999.0,  999.0,  999.0,  999.0,   13.7,   13.5,   12.7,  999.0,  999.0,   12.6,   12.1,  999.0,    7.9
1999/07/26 02:50,    6.9,   10.8,   12.9,   13.4,   12.6,   12.1,   11.9,   11.5,   10.7,   10.2,   10.1,   10.7,   11.0,   11.8,   11.9,   12.1,   12.6,   13.7,  999.0,   13.0,   13.3,   13.6,   13.5,   14.2,   13.9,   12.7,  999.0,  999.0,   12.2,  999.0,   11.5,   10.3
1999/07/26 03:00,    6.6,   10.2,   12.2,   13.5,   12.1,   12.0,   12.0,   12.1,   11.3,   10.7,   10.6,   10.9,   10.8,   11.3,  999.0,   11.5,  999.0,  999.0,  999.0,   12.9,   12.8,  999.0,  999.0,   13.7,   14.3,   13.6,  999.0,  999.0,   12.7,  999.0,  999.0,    9.8
1999/07/26 03:10,    6.7,    9.2,   11.5,   12.6,   12.3,   12.2,   11.8,   11.9,   11.2,   11.0,   11.2,   11.5,   11.8,   12.0,   12.2,   12.6,  999.0,  999.0,   13.1,   13.3,   13.6,  999.0,  999.0,   14.3,   14.4,   13.7,  999.0,  999.0,  999.0,   13.3,  999.0,  999.0
1999/07/26 03:20,  999.0,    8.4,   11.7,   12.5,   12.8,   12.9,   12.6,   12.1,   11.3,   10.7,   11.1,   11.6,   11.7,   11.5,   11.9,   12.9,  999.0,  999.0,   13.0,   13.3,   13.6,  999.0,  999.0,  999.0,   14.4,  999.0,   13.9,  999.0,  999.0,   12.9,  999.0,  999.0
1999/07/26 03:30,    8.3,    9.0,   11.2,   12.5,   12.8,   13.0,   12.7,   12.3,   11.4,   11.4,   11.0,   11.6,   11.0,   11.4,   10.6,   12.9,   12.3,  999.0,  999.0,   12.6,  999.0,   13.0,  999.0,  999.0,   13.6,  999.0,  999.0,   13.0,  999.0,  999.0,  999.0,    9.5
1999/07/26 03:40,    8.1,    9.8,   11.7,   13.1,   13.3,   13.6,   13.1,   12.8,   11.8,  999.0,  999.0,   10.6,  999.0,   11.5,   11.4,  999.0,  999.0,  999.0,   12.8,   13.0,  999.0,   12.4,   14.1,  999.0,   14.3,  999.0,  999.0,   13.4,  999.0,  999.0,  999.0,  999.0
1999/07/26 03:50,    8.3,    9.9,   11.9,   13.1,   13.4,   13.2,   13.2,   12.6,   11.5,   12.1,   11.6,   12.0,   11.9,   11.7,   11.4,   12.8,  999.0,  999.0,  999.0,   13.0,   14.3,   13.0,   13.4,  999.0,  999.0,  999.0,   14.3,   13.8,   14.9,  999.0,  999.0,  999.0
1999/07/26 04:00,    8.7,    9.7,   11.3,   12.8,   13.2,   13.3,   13.1,   12.6,   12.7,   12.5,   12.0,   12.2,   11.4,   11.2,   11.4,   12.6,  999.0,   13.0,   12.8,   12.6,   13.3,   13.0,   13.7,   14.8,  999.0,  999.0,   14.6,   14.3,  999.0,  999.0,  999.0,  999.0
1999/07/26 04:10,    9.6,   10.8,   12.0,   12.5,   12.4,   11.9,   12.3,   12.4,   11.8,   12.3,   11.2,  999.0,  999.0,   10.3,   12.0,   12.7,  999.0,  999.0,  999.0,   12.2,   12.2,   12.1,   12.1,  999.0,  999.0,  999.0,  999.0,  999.0,  999.0,  999.0,  999.0,  999.0
1999/07/26 04:20,    9.7,   10.7,   11.7,   12.0,   12.2,   12.4,   12.7,   12.6,   12.8,   12.5,   11.9,  999.0,   10.9,   11.0,   12.0,   12.7,  999.0,   12.2,   12.3,   11.4,   11.8,   11.1,   11.4,  999.0,  999.0,  999.0,  999.0,   14.3,   14.0,  999.0,  999.0,  999.0
1999/07/26 04:30,    9.3,   10.9,   11.7,   11.8,   12.2,   13.0,   13.5,   13.2,   12.9,   12.7,   11.8,  999.0,   10.9,   11.0,   11.9,   12.1,   11.7,  999.0,   11.3,   11.1,   11.5,   10.9,   11.8,  999.0,  999.0,  999.0,  999.0,  999.0,   12.8,  999.0,  999.0,  999.0
1999/07/26 04:40,    9.3,   10.7,   11.7,   12.1,   12.1,   12.8,   13.1,   13.2,   12.6,   12.8,   12.6,  999.0,  999.0,   10.4,  999.0,  999.0,  999.0,   10.6,   10.8,   10.7,   11.4,   11.3,   11.1,   12.3,   12.8,  999.0,  999.0,  999.0,   14.0,   12.7,   13.4,  999.0
1999/07/26 04:50,    9.2,    9.6,   11.0,   11.8,   12.0,   12.4,   12.3,   12.6,   12.9,   13.0,   12.1,  999.0,  999.0,   11.4,  999.0,  999.0,   11.1,   10.6,   10.2,  999.0,   11.1,   11.6,  999.0,  999.0,  999.0,  999.0,  999.0,  999.0,  999.0,   12.7,   13.4,  999.0
1999/07/26 05:00,    9.0,    9.7,   10.9,   12.3,   12.4,   12.9,   13.4,   13.3,   13.3,   13.3,  999.0,  999.0,   12.1,   12.1,  999.0,  999.0,   10.7,   10.1,    9.8,    9.7,   10.4,   10.7,  999.0,  999.0,   13.9,   14.9,  999.0,  999.0,  999.0,   12.5,   13.1,  999.0
1999/07/26 05:10,    8.6,   10.2,   11.1,   12.1,   12.4,   13.1,   13.3,   13.3,   13.3,  999.0,   12.7,  999.0,  999.0,   11.4,  999.0,  999.0,  999.0,  999.0,   10.9,  999.0,  999.0,  999.0,  999.0,   11.8,   13.0,  999.0,  999.0,  999.0,  999.0,  999.0,   12.6,   12.9
1999/07/26 05:20,  999.0,   10.1,   11.3,   12.0,   12.8,   13.0,   12.7,   12.7,  999.0,   12.8,   12.8,   11.8,   11.4,   11.5,  999.0,  999.0,  999.0,  999.0,   11.2,    9.8,    9.7,  999.0,  999.0,   11.5,   12.9,  999.0,  999.0,  999.0,  999.0,  999.0,  999.0,  999.0
1999/07/26 05:30,    8.9,   10.5,   11.4,   12.4,   12.5,   12.5,   12.7,   12.8,   12.7,   12.9,   12.7,   12.7,   11.6,   11.0,  999.0,  999.0,  999.0,  999.0,  999.0,  999.0,  999.0,  999.0,   12.3,   12.3,   13.8,  999.0,  999.0,   13.9,  999.0,  999.0,  999.0,  999.0
1999/07/26 05:40,    8.8,   10.0,   11.4,   12.5,   12.7,   12.8,   12.6,   12.6,   12.8,   12.7,   12.3,   12.2,   11.8,   11.4,  999.0,  999.0,   10.9,  999.0,   10.0,   10.1,    9.9,  999.0,  999.0,   12.1,   13.4,  999.0,  999.0,  999.0,  999.0,  999.0,  999.0,  999.0
1999/07/26 05:50,    8.6,   10.1,   10.9,   11.7,   12.4,   12.7,   12.7,   13.7,   13.8,   13.8,   13.9,   13.7,   12.7,   12.4,   13.1,   12.9,   11.3,   11.8,   10.7,   10.8,   11.1,   11.8,  999.0,   11.8,   13.5,  999.0,  999.0,  999.0,  999.0,  999.0,   13.3,  999.0
1999/07/26 06:00,    9.0,   10.1,   11.3,   11.9,   12.3,   12.6,   13.0,   13.7,   14.0,   14.1,   14.3,   13.6,   12.7,   12.8,   12.6,   12.3,   11.1,  999.0,    9.9,   10.3,   11.1,  999.0,  999.0,  999.0,   12.6,  999.0,  999.0,  999.0,  999.0,  999.0,   11.5,   11.8
1999/07/26 06:10,    9.2,   10.6,   11.1,   11.4,   11.9,   11.9,   12.7,   13.5,   13.6,   13.6,   13.9,   13.5,  999.0,   11.9,   11.7,   11.5,  999.0,    9.4,    9.8,   10.0,   10.7,  999.0,  999.0,   11.7,   12.2,   13.2,  999.0,   13.5,  999.0,  999.0,  999.0,   11.9
1999/07/26 06:20,    9.1,   10.3,   11.1,   11.6,   11.9,   12.2,   12.8,   13.4,   13.6,   13.9,   13.6,   12.4,  999.0,   12.7,   12.0,  999.0,  999.0,   10.8,  999.0,  999.0,  999.0,  999.0,   12.2,   12.8,   12.8,  999.0,  999.0,  999.0,  999.0,  999.0,  999.0,  999.0
1999/07/26 06:30,    9.6,   10.8,   11.7,   12.0,   11.6,   11.8,   12.3,   13.2,   13.7,   13.9,   13.2,   12.3,   12.4,   12.5,   12.2,   12.0,   10.8,   11.1,  999.0,   12.4,   11.7,  999.0,  999.0,   13.0,   14.0,  999.0,  999.0,  999.0,  999.0,  999.0,  999.0,  999.0
1999/07/26 06:40,    9.4,   11.2,   12.0,   12.3,   12.0,   11.8,   13.0,   13.1,   13.2,   13.3,   12.9,   12.4,   12.0,   12.2,   12.3,  999.0,   10.6,   11.7,   10.8,   11.3,  999.0,  999.0,  999.0,  999.0,   13.5,  999.0,   12.6,  999.0,  999.0,  999.0,  999.0,  999.0
1999/07/26 06:50,    9.7,   10.9,   11.3,   11.3,   11.2,   12.2,   12.0,   12.5,   13.0,   13.2,   13.1,  999.0,   11.9,   12.3,   12.2,   12.1,   11.7,   11.3,  999.0,  999.0,  999.0,  999.0,  999.0,   13.2,   12.2,  999.0,   13.1,   15.5,  999.0,  999.0,  999.0,   10.8
1999/07/26 07:00,    9.3,   10.4,   10.7,   11.0,   11.0,   11.6,   11.2,   12.6,   13.2,   13.7,   13.1,   12.9,   12.0,   11.9,   11.2,   10.7,   10.4,   10.8,   11.0,   11.5,  999.0,  999.0,  999.0,   12.6,   11.3,   11.8,   12.7,   14.5,  999.0,  999.0,  999.0,  999.0
1999/07/26 07:10,  999.0,   10.2,   10.8,   11.2,   12.2,   12.2,   12.1,   12.6,   12.9,   12.8,   11.8,   11.8,   11.3,   11.3,   11.1,   10.3,   10.2,   11.1,   10.7,   11.7,   12.0,   12.7,   12.3,  999.0,   11.5,   12.7,   13.7,  999.0,  999.0,  999.0,  999.0,  999.0
1999/07/26 07:20,    9.5,   10.3,   10.8,   11.4,   11.5,   11.9,   11.9,   12.7,   12.5,   12.5,  999.0,   11.5,   10.8,   10.8,  999.0,    9.9,    9.7,   10.1,   10.8,   11.3,   13.4,   13.1,   13.1,   12.8,   12.1,   12.9,   15.0,   16.1,  999.0,  999.0,  999.0,  999.0
1999/07/26 07:30,  999.0,   11.2,  999.0,   12.7,  999.0,  999.0,  999.0,  999.0,   12.8,  999.0,  999.0,  999.0,  999.0,  999.0,  999.0,  999.0,  999.0,  999.0,  999.0,  999.0,  999.0,  999.0,  999.0,  999.0,  999.0,  999.0,  999.0,  999.0,  999.0,  999.0,  999.0,  999.0
1999/07/26 07:40,  999.0,  999.0,  999.0,  999.0,  999.0,  999.0,  999.0,  999.0,  999.0,  999.0,  999.0,  999.0,  999.0,  999.0,  999.0,  999.0,  999.0,  999.0,  999.0,  999.0,  999.0,  999.0,  999.0,  999.0,  999.0,  999.0,  999.0,  999.0,  999.0,  999.0,  999.0,  999.0
1999/07/26 07:50,  999.0,  999.0,  999.0,  999.0,  999.0,  999.0,  999.0,  999.0,  999.0,  999.0,  999.0,  999.0,  999.0,  999.0,  999.0,  999.0,  999.0,  999.0,  999.0,  999.0,  999.0,  999.0,  999.0,  999.0,  999.0,  999.0,  999.0,  999.0,  999.0,  999.0,  999.0,  999.0
1999/07/26 08:00,  999.0,  999.0,  999.0,  999.0,  999.0,  999.0,  999.0,  999.0,  999.0,  999.0,  999.0,  999.0,  999.0,  999.0,  999.0,  999.0,  999.0,  999.0,  999.0,  999.0,  999.0,  999.0,  999.0,  999.0,  999.0,  999.0,  999.0,  999.0,  999.0,  999.0,  999.0,  999.0
1999/07/26 08:10,  999.0,  999.0,  999.0,  999.0,  999.0,  999.0,  999.0,  999.0,  999.0,  999.0,  999.0,  999.0,  999.0,  999.0,  999.0,  999.0,  999.0,  999.0,  999.0,  999.0,  999.0,  999.0,  999.0,  999.0,  999.0,  999.0,  999.0,  999.0,  999.0,  999.0,  999.0,  999.0
1999/07/26 08:20,  999.0,  999.0,  999.0,  999.0,  999.0,  999.0,  999.0,  999.0,  999.0,  999.0,  999.0,  999.0,  999.0,  999.0,  999.0,  999.0,  999.0,  999.0,  999.0,  999.0,  999.0,  999.0,  999.0,  999.0,  999.0,  999.0,  999.0,  999.0,  999.0,  999.0,  999.0,  999.0
1999/07/26 08:30,  999.0,  999.0,  999.0,  999.0,  999.0,  999.0,  999.0,  999.0,  999.0,  999.0,  999.0,  999.0,  999.0,  999.0,  999.0,  999.0,  999.0,  999.0,  999.0,  999.0,  999.0,  999.0,  999.0,  999.0,  999.0,  999.0,  999.0,  999.0,  999.0,  999.0,  999.0,  999.0
1999/07/26 08:40,  999.0,  999.0,  999.0,  999.0,  999.0,  999.0,  999.0,  999.0,  999.0,  999.0,  999.0,  999.0,  999.0,  999.0,  999.0,  999.0,  999.0,  999.0,  999.0,  999.0,  999.0,  999.0,  999.0,  999.0,  999.0,  999.0,  999.0,  999.0,  999.0,  999.0,  999.0,  999.0
1999/07/26 08:50,  999.0,  999.0,  999.0,  999.0,  999.0,  999.0,  999.0,  999.0,  999.0,  999.0,  999.0,  999.0,  999.0,  999.0,  999.0,  999.0,  999.0,  999.0,  999.0,  999.0,  999.0,  999.0,  999.0,  999.0,  999.0,  999.0,  999.0,  999.0,  999.0,  999.0,  999.0,  999.0
1999/07/26 09:00,  999.0,  999.0,  999.0,  999.0,  999.0,  999.0,  999.0,  999.0,  999.0,  999.0,  999.0,  999.0,  999.0,  999.0,  999.0,  999.0,  999.0,  999.0,  999.0,  999.0,  999.0,  999.0,  999.0,  999.0,  999.0,  999.0,  999.0,  999.0,  999.0,  999.0,  999.0,  999.0
1999/07/26 09:10,  999.0,  999.0,  999.0,  999.0,  999.0,  999.0,  999.0,  999.0,  999.0,  999.0,  999.0,  999.0,  999.0,  999.0,  999.0,  999.0,  999.0,  999.0,  999.0,  999.0,  999.0,  999.0,  999.0,  999.0,  999.0,  999.0,  999.0,  999.0,  999.0,  999.0,  999.0,  999.0
1999/07/26 09:20,  999.0,  999.0,  999.0,  999.0,  999.0,  999.0,  999.0,  999.0,  999.0,  999.0,  999.0,  999.0,  999.0,  999.0,  999.0,  999.0,  999.0,  999.0,  999.0,  999.0,  999.0,  999.0,  999.0,  999.0,  999.0,  999.0,  999.0,  999.0,  999.0,  999.0,  999.0,  999.0
1999/07/26 09:30,  999.0,  999.0,  999.0,  999.0,  999.0,  999.0,  999.0,  999.0,  999.0,  999.0,  999.0,  999.0,  999.0,  999.0,  999.0,  999.0,  999.0,  999.0,  999.0,  999.0,  999.0,  999.0,  999.0,  999.0,  999.0,  999.0,  999.0,  999.0,  999.0,  999.0,  999.0,  999.0
1999/07/26 09:40,  999.0,  999.0,  999.0,  999.0,  999.0,  999.0,  999.0,  999.0,  999.0,  999.0,  999.0,  999.0,  999.0,  999.0,  999.0,  999.0,  999.0,  999.0,  999.0,  999.0,  999.0,  999.0,  999.0,  999.0,  999.0,  999.0,  999.0,  999.0,  999.0,  999.0,  999.0,  999.0
1999/07/26 09:50,  999.0,  999.0,   11.7,   14.4,   15.7,   16.6,   17.2,   17.4,   17.5,   16.0,   14.5,   13.4,   13.4,   12.2,   11.2,   10.5,    9.1,  999.0,   10.4,  999.0,  999.0,   11.5,  999.0,  999.0,  999.0,  999.0,  999.0,  999.0,  999.0,  999.0,  999.0,  999.0
1999/07/26 10:00,  999.0,  999.0,  999.0,  999.0,  999.0,   14.4,  999.0,  999.0,   15.8,  999.0,  999.0,  999.0,  999.0,  999.0,  999.0,  999.0,   11.1,  999.0,  999.0,  999.0,  999.0,  999.0,  999.0,  999.0,  999.0,  999.0,  999.0,  999.0,  999.0,  999.0,  999.0,  999.0
1999/07/26 10:10,  999.0,  999.0,  999.0,  999.0,  999.0,  999.0,  999.0,  999.0,  999.0,  999.0,  999.0,  999.0,  999.0,  999.0,  999.0,  999.0,  999.0,  999.0,  999.0,  999.0,  999.0,  999.0,  999.0,  999.0,  999.0,  999.0,  999.0,  999.0,  999.0,  999.0,  999.0,  999.0
1999/07/26 10:20,  999.0,  999.0,  999.0,  999.0,  999.0,  999.0,  999.0,  999.0,  999.0,  999.0,  999.0,  999.0,  999.0,  999.0,  999.0,  999.0,  999.0,  999.0,  999.0,  999.0,  999.0,  999.0,  999.0,  999.0,  999.0,  999.0,  999.0,  999.0,  999.0,  999.0,  999.0,  999.0
1999/07/26 10:30,  999.0,  999.0,  999.0,  999.0,  999.0,  999.0,  999.0,  999.0,  999.0,  999.0,  999.0,  999.0,  999.0,  999.0,  999.0,  999.0,  999.0,  999.0,  999.0,  999.0,  999.0,  999.0,  999.0,  999.0,  999.0,  999.0,  999.0,  999.0,  999.0,  999.0,  999.0,  999.0
1999/07/26 10:40,  999.0,  999.0,  999.0,  999.0,  999.0,  999.0,  999.0,  999.0,  999.0,  999.0,  999.0,  999.0,  999.0,  999.0,  999.0,  999.0,  999.0,  999.0,  999.0,  999.0,  999.0,  999.0,  999.0,  999.0,  999.0,  999.0,  999.0,  999.0,  999.0,  999.0,  999.0,  999.0
1999/07/26 10:50,  999.0,  999.0,  999.0,  999.0,  999.0,  999.0,  999.0,  999.0,  999.0,  999.0,  999.0,  999.0,  999.0,  999.0,  999.0,  999.0,  999.0,  999.0,  999.0,  999.0,  999.0,  999.0,  999.0,  999.0,  999.0,  999.0,  999.0,  999.0,  999.0,  999.0,  999.0,  999.0
1999/07/26 11:00,  999.0,  999.0,  999.0,  999.0,  999.0,  999.0,  999.0,  999.0,  999.0,  999.0,  999.0,  999.0,  999.0,  999.0,  999.0,  999.0,  999.0,  999.0,  999.0,  999.0,  999.0,  999.0,  999.0,  999.0,  999.0,  999.0,  999.0,  999.0,  999.0,  999.0,  999.0,  999.0
1999/07/26 11:10,  999.0,  999.0,  999.0,  999.0,  999.0,  999.0,  999.0,  999.0,  999.0,  999.0,  999.0,  999.0,  999.0,  999.0,  999.0,  999.0,  999.0,  999.0,  999.0,  999.0,  999.0,  999.0,  999.0,  999.0,  999.0,  999.0,  999.0,  999.0,  999.0,  999.0,  999.0,  999.0
1999/07/26 11:20,  999.0,  999.0,  999.0,  999.0,  999.0,  999.0,  999.0,  999.0,  999.0,  999.0,  999.0,  999.0,  999.0,  999.0,  999.0,  999.0,  999.0,  999.0,  999.0,  999.0,  999.0,  999.0,  999.0,  999.0,  999.0,  999.0,  999.0,  999.0,  999.0,  999.0,  999.0,  999.0
1999/07/26 11:30,  999.0,  999.0,  999.0,  999.0,  999.0,  999.0,  999.0,  999.0,  999.0,  999.0,  999.0,  999.0,  999.0,  999.0,  999.0,  999.0,  999.0,  999.0,  999.0,  999.0,  999.0,  999.0,  999.0,  999.0,  999.0,  999.0,  999.0,  999.0,  999.0,  999.0,  999.0,  999.0
1999/07/26 11:40,  999.0,  999.0,  999.0,  999.0,  999.0,  999.0,  999.0,  999.0,  999.0,  999.0,  999.0,  999.0,  999.0,  999.0,  999.0,  999.0,  999.0,  999.0,  999.0,  999.0,  999.0,  999.0,  999.0,  999.0,  999.0,  999.0,  999.0,  999.0,  999.0,  999.0,  999.0,  999.0
1999/07/26 11:50,  999.0,  999.0,  999.0,  999.0,  999.0,  999.0,  999.0,  999.0,  999.0,  999.0,  999.0,  999.0,  999.0,  999.0,  999.0,  999.0,  999.0,  999.0,  999.0,  999.0,  999.0,  999.0,  999.0,  999.0,  999.0,  999.0,  999.0,  999.0,  999.0,  999.0,  999.0,  999.0
1999/07/26 12:00,  999.0,  999.0,  999.0,  999.0,  999.0,  999.0,  999.0,  999.0,  999.0,  999.0,  999.0,  999.0,  999.0,  999.0,  999.0,  999.0,  999.0,  999.0,  999.0,  999.0,  999.0,  999.0,  999.0,  999.0,  999.0,  999.0,  999.0,  999.0,  999.0,  999.0,  999.0,  999.0
1999/07/26 12:10,  999.0,  999.0,  999.0,  999.0,  999.0,  999.0,  999.0,  999.0,  999.0,  999.0,  999.0,  999.0,  999.0,  999.0,  999.0,  999.0,  999.0,  999.0,  999.0,  999.0,  999.0,  999.0,  999.0,  999.0,  999.0,  999.0,  999.0,  999.0,  999.0,  999.0,  999.0,  999.0
1999/07/26 12:20,  999.0,  999.0,  999.0,  999.0,  999.0,  999.0,  999.0,  999.0,  999.0,  999.0,  999.0,  999.0,  999.0,  999.0,  999.0,  999.0,  999.0,  999.0,  999.0,  999.0,  999.0,  999.0,  999.0,  999.0,  999.0,  999.0,  999.0,  999.0,  999.0,  999.0,  999.0,  999.0
1999/07/26 12:30,  999.0,  999.0,  999.0,  999.0,  999.0,  999.0,  999.0,  999.0,  999.0,  999.0,  999.0,  999.0,  999.0,  999.0,  999.0,  999.0,  999.0,  999.0,  999.0,  999.0,  999.0,  999.0,  999.0,  999.0,  999.0,  999.0,  999.0,  999.0,  999.0,  999.0,  999.0,  999.0
1999/07/26 12:40,  999.0,  999.0,  999.0,  999.0,  999.0,  999.0,  999.0,  999.0,  999.0,  999.0,  999.0,  999.0,  999.0,  999.0,  999.0,  999.0,  999.0,  999.0,  999.0,  999.0,  999.0,  999.0,  999.0,  999.0,  999.0,  999.0,  999.0,  999.0,  999.0,  999.0,  999.0,  999.0
1999/07/26 12:50,  999.0,  999.0,  999.0,  999.0,  999.0,  999.0,  999.0,  999.0,  999.0,  999.0,  999.0,  999.0,  999.0,  999.0,  999.0,  999.0,  999.0,  999.0,  999.0,  999.0,  999.0,  999.0,  999.0,  999.0,  999.0,  999.0,  999.0,  999.0,  999.0,  999.0,  999.0,  999.0
1999/07/26 13:00,  999.0,  999.0,  999.0,  999.0,  999.0,  999.0,  999.0,  999.0,  999.0,  999.0,  999.0,  999.0,  999.0,  999.0,  999.0,  999.0,  999.0,  999.0,  999.0,  999.0,  999.0,  999.0,  999.0,  999.0,  999.0,  999.0,  999.0,  999.0,  999.0,  999.0,  999.0,  999.0
1999/07/26 13:10,  999.0,  999.0,  999.0,  999.0,  999.0,  999.0,  999.0,  999.0,  999.0,  999.0,  999.0,  999.0,  999.0,  999.0,  999.0,  999.0,  999.0,  999.0,  999.0,  999.0,  999.0,  999.0,  999.0,  999.0,  999.0,  999.0,  999.0,  999.0,  999.0,  999.0,  999.0,  999.0
1999/07/26 13:20,  999.0,  999.0,  999.0,  999.0,  999.0,  999.0,  999.0,  999.0,  999.0,  999.0,  999.0,  999.0,  999.0,  999.0,  999.0,  999.0,  999.0,  999.0,  999.0,  999.0,  999.0,  999.0,  999.0,  999.0,  999.0,  999.0,  999.0,  999.0,  999.0,  999.0,  999.0,  999.0
1999/07/26 13:30,    8.7,   11.7,   11.2,   13.7,  999.0,  999.0,  999.0,   18.3,   17.8,  999.0,  999.0,   20.9,   21.7,   21.8,  999.0,  999.0,  999.0,  999.0,  999.0,  999.0,  999.0,  999.0,   16.5,   14.0,   13.7,  999.0,  999.0,  999.0,  999.0,  999.0,  999.0,  999.0
1999/07/26 13:40,    9.3,   10.5,   12.4,   13.7,   14.9,   15.7,   17.5,   18.2,   18.1,   18.6,   19.8,   19.9,   19.9,   20.0,   18.3,  999.0,   18.9,   17.8,   16.4,   15.3,   12.3,   16.1,   15.5,   14.5,   13.5,   12.3,  999.0,  999.0,  999.0,  999.0,  999.0,  999.0
1999/07/26 13:50,   10.5,   11.8,   13.1,   14.0,   15.1,   16.3,   16.5,   17.4,   17.5,   17.6,   17.4,   17.1,   17.1,  999.0,  999.0,  999.0,   18.3,   17.5,   17.1,  999.0,  999.0,   16.2,   16.3,   15.7,   14.9,   12.9,   10.4,    8.7,  999.0,  999.0,  999.0,  999.0
1999/07/26 14:00,    9.6,   10.4,   10.6,   11.6,   13.6,   14.8,   15.8,   15.6,   15.3,   16.4,   17.9,   18.5,   18.4,   17.9,   18.4,   16.9,   17.3,   17.1,   16.2,   15.9,  999.0,  999.0,   16.4,   15.5,   14.2,   12.7,    9.8,    8.1,    7.5,    6.1,    6.7,  999.0
1999/07/26 14:10,    9.4,   11.1,   11.8,   10.4,   13.3,   14.8,   15.6,   15.0,   14.9,   15.4,   16.6,   17.9,   17.4,   17.4,  999.0,  999.0,   16.6,   16.1,   14.7,   14.2,   14.7,  999.0,  999.0,   14.3,   13.6,   12.6,    9.7,    7.5,    6.6,    5.9,    5.5,  999.0
1999/07/26 14:20,   11.1,   11.3,   12.3,   12.3,   13.1,   14.1,   14.6,   15.5,   14.1,   14.5,   15.5,   17.1,   17.6,   17.5,   18.1,  999.0,   17.0,   17.2,   15.9,   14.9,   15.9,  999.0,   14.9,   13.3,   13.3,   12.5,   10.7,    7.7,    5.9,    6.4,    5.6,  999.0
1999/07/26 14:30,    9.9,   10.6,   11.8,   12.8,   14.0,   15.0,   16.2,   16.5,   16.2,   15.7,   16.7,   17.1,   17.8,   18.0,   17.9,   17.8,   17.1,   17.7,   16.5,   16.3,   17.5,  999.0,  999.0,   13.9,   13.6,   12.2,   11.4,    7.8,    5.9,    5.3,    5.3,  999.0
1999/07/26 14:40,   10.0,   10.2,   11.2,   12.7,   13.8,   15.0,   15.1,   15.1,   15.5,   15.8,   17.0,   17.1,   17.4,   17.6,   17.4,   16.1,   16.4,   16.4,   16.3,   15.0,  999.0,  999.0,   14.9,   13.6,   13.0,   11.5,    9.5,    8.5,    5.8,    5.3,    4.8,  999.0
1999/07/26 14:50,   10.1,   10.7,   11.5,   12.5,   13.3,   13.5,   13.5,   14.3,   14.5,   15.5,   16.0,   16.7,   17.5,   17.6,   17.4,   15.8,   16.0,   15.8,   15.4,   14.6,   15.3,   14.9,   15.0,   14.8,   14.1,   10.7,   10.2,    8.3,    7.1,    5.1,    5.6,  999.0
1999/07/26 15:00,   10.0,   11.0,   11.9,   13.4,   14.4,   14.6,   15.4,   16.0,   16.3,   17.7,   17.9,   18.5,   17.6,   17.4,  999.0,  999.0,    6.6,    4.7,  999.0,  999.0,   12.1,   16.1,   16.2,   16.8,   15.2,  999.0,   11.9,   10.4,    8.6,    7.1,  999.0,  999.0
1999/07/26 15:10,    9.3,   10.1,   11.5,   13.6,   14.2,   15.7,   16.6,   17.4,   18.1,   18.6,   18.9,   18.8,  999.0,   18.3,  999.0,  999.0,   16.3,  999.0,  999.0,   16.9,  999.0,   16.6,  999.0,   17.1,   16.9,   13.8,  999.0,   10.4,    8.9,    7.8,  999.0,  999.0
1999/07/26 15:20,   10.0,   11.2,   12.1,   13.6,   15.3,   16.4,   17.0,   17.9,   18.8,   18.8,   18.6,   18.1,   17.5,   17.5,   17.4,  999.0,   16.1,  999.0,   16.9,   17.2,   18.0,   18.3,  999.0,   17.4,   18.2,   15.3,  999.0,  999.0,  999.0,  999.0,  999.0,  999.0
1999/07/26 15:30,    9.0,   10.8,   12.5,   14.1,   15.3,   16.1,   17.0,   18.1,   18.6,   19.1,   19.2,   18.7,   17.9,   17.6,   17.9,  999.0,  999.0,  999.0,  999.0,   17.8,   17.8,   18.4,   18.2,   18.5,   18.9,   17.2,  999.0,   10.7,  999.0,  999.0,  999.0,  999.0
1999/07/26 15:40,    9.7,   11.4,   12.5,   13.6,   14.5,   15.3,   16.0,   16.3,   16.6,   17.4,   17.6,   18.7,   17.7,  999.0,  999.0,  999.0,   16.3,   17.0,  999.0,  999.0,   17.1,   17.6,   17.9,   17.9,   17.8,   16.5,   15.0,   13.1,  999.0,  999.0,  999.0,  999.0
1999/07/26 15:50,    9.2,   10.0,   10.6,   12.5,   13.7,   14.7,   15.6,   16.3,   16.4,   17.5,   17.9,   18.3,  999.0,  999.0,  999.0,  999.0,   16.0,   16.1,   16.7,   17.4,   16.7,   16.8,   17.0,   16.6,   16.5,   15.7,   13.7,   12.1,   11.1,  999.0,  999.0,  999.0
1999/07/26 16:00,    9.4,   11.5,   11.7,   12.5,   13.9,   15.1,   15.9,   16.0,   16.1,   16.5,   17.9,   18.1,   18.0,   18.7,  999.0,  999.0,   16.2,   17.9,  999.0,   16.6,   15.6,   17.0,   16.3,   16.0,   16.4,   15.8,   14.3,   12.9,   11.7,   10.3,    6.9,    6.7
1999/07/26 16:10,   10.2,   11.1,   11.5,   12.2,   13.2,   14.1,   15.1,   15.5,   16.0,   16.5,   17.0,   17.6,   18.1,   18.5,  999.0,   17.8,   17.4,   16.6,  999.0,   16.1,   15.8,   16.2,  999.0,   15.1,   15.3,   14.9,   14.1,   12.3,   11.2,  999.0,    7.4,    6.3
1999/07/26 16:20,    8.3,    9.8,    9.8,   12.1,   12.1,   13.9,   15.0,   15.6,   16.4,   17.5,   18.0,   17.7,   18.4,   18.3,   18.8,   17.5,   15.9,   16.0,   15.8,   16.7,   15.6,   15.9,  999.0,   15.9,   15.6,   15.3,   14.0,  999.0,  999.0,  999.0,    7.2,  999.0
1999/07/26 16:30,    8.3,    9.6,   11.6,   11.7,   12.8,   13.7,   15.0,   16.0,   17.0,   18.3,   18.3,   18.6,   19.1,   18.8,   18.7,  999.0,   16.7,   17.3,  999.0,   17.3,   17.4,   17.6,   16.8,  999.0,   16.5,   15.9,   15.5,  999.0,  999.0,  999.0,    7.1,    5.7
1999/07/26 16:40,    8.2,    8.9,   11.0,   12.0,   12.8,   13.9,   15.2,   16.4,   17.4,   17.9,   18.6,   18.9,   18.8,   18.8,   18.6,  999.0,   17.6,   16.3,   16.8,   16.8,   17.4,   17.8,   17.7,  999.0,   16.7,   16.1,   13.5,  999.0,   11.3,  999.0,    7.0,    7.7
1999/07/26 16:50,    8.4,   10.1,   11.6,   12.0,   12.3,   13.3,   13.4,   15.4,   16.3,   16.7,   17.9,   18.6,   19.1,   18.6,  999.0,   18.3,   17.3,   16.0,   16.8,   17.2,   17.6,  999.0,  999.0,   17.1,   16.8,   15.0,   13.8,  999.0,  999.0,   10.1,    8.3,    6.7
1999/07/26 17:00,    7.7,    9.2,   10.0,   11.7,   11.8,   12.7,   14.5,   15.6,   16.8,   17.3,   18.2,   19.0,   19.5,   19.2,  999.0,   18.5,   18.4,  999.0,  999.0,   16.5,   16.7,   16.6,   17.0,   16.4,   16.4,   15.2,   13.9,  999.0,   11.3,  999.0,  999.0,    6.8
1999/07/26 17:10,    8.1,    9.3,   10.3,   11.2,   12.7,   13.1,   14.3,   15.1,   16.0,   16.2,   18.2,   19.1,   19.1,   19.0,   18.8,   18.1,   17.6,   16.6,  999.0,  999.0,   17.2,   16.4,   18.2,   16.5,   16.1,   14.8,  999.0,  999.0,  999.0,   10.2,  999.0,    7.2
1999/07/26 17:20,    9.7,   10.5,   11.3,   11.4,   12.2,   13.4,   14.0,   14.6,   15.4,   16.5,   18.3,   18.6,   19.5,   19.4,   19.0,   18.6,   17.6,   16.7,   16.5,   16.2,  999.0,   16.3,   16.6,   16.2,   15.0,   13.9,   11.5,  999.0,    9.8,    9.2,  999.0,    6.9
1999/07/26 17:30,    8.2,    9.5,   12.3,   11.2,   12.6,   13.5,   14.6,   14.3,   15.9,   17.9,   19.6,   21.1,   21.1,   20.6,   20.1,   19.7,   18.2,   18.3,  999.0,  999.0,  999.0,   18.7,   18.1,   16.8,   15.6,   14.3,  999.0,  999.0,  999.0,  999.0,  999.0,    6.0
1999/07/26 17:40,    7.4,    9.2,   10.1,   10.5,   12.3,   12.7,   12.9,   14.3,   15.1,   16.6,   17.7,   19.2,   20.0,   19.9,   19.2,   19.5,   18.4,   17.6,   17.8,  999.0,   18.3,   16.8,   16.8,   15.7,   14.8,   13.6,  999.0,  999.0,  999.0,  999.0,  999.0,  999.0
1999/07/26 17:50,    6.9,    9.1,    9.9,   11.1,   12.7,   12.7,   13.6,   14.6,   15.3,   15.9,   17.0,   18.6,   19.4,   19.5,   18.8,   18.1,   18.4,   17.3,   17.5,   16.9,   16.9,   15.7,   14.6,   14.1,   13.2,  999.0,  999.0,  999.0,    8.6,    8.0,    6.4,  999.0
1999/07/26 18:00,    7.8,    8.7,   10.5,   12.5,   13.2,   13.6,   14.7,   15.6,   15.8,   17.2,   18.2,   19.0,   20.0,   19.6,   19.7,  999.0,   18.9,   18.5,   18.2,  999.0,   16.7,   17.3,   16.2,   14.6,   13.8,   12.1,  999.0,  999.0,    9.4,  999.0,  999.0,    6.1
1999/07/26 18:10,    8.4,    9.8,   10.9,   11.8,   13.2,   13.5,   14.6,   15.7,   16.6,   17.3,   18.4,   19.0,   19.7,   20.1,   20.1,   19.5,   18.6,   18.3,   18.0,  999.0,   17.7,   17.2,   16.4,   14.9,   13.6,   11.3,  999.0,  999.0,    8.5,    7.7,  999.0,  999.0
1999/07/26 18:20,    8.9,    9.1,   10.2,   12.2,   13.2,   14.3,   14.4,   15.1,   15.2,   15.8,   17.5,   19.1,   19.4,   20.2,   20.6,   19.5,   18.7,   18.6,   18.0,   18.5,   17.5,   17.3,   15.9,   14.4,   13.7,    9.9,  999.0,  999.0,    8.5,    7.3,  999.0,  999.0
1999/07/26 18:30,    7.6,    8.7,   10.9,   11.6,   13.2,   14.6,   14.8,   15.2,   15.4,   15.5,   16.7,   18.3,   19.8,   20.5,   20.7,   20.3,   19.6,   18.6,   17.4,   17.3,   16.9,   15.9,   15.1,   13.8,   11.9,   10.2,  999.0,  999.0,  999.0,  999.0,  999.0,  999.0
1999/07/26 18:40,    7.5,    9.0,   10.9,   11.7,   12.9,   13.8,   15.2,   15.4,   14.3,   15.1,   17.1,   19.2,   20.2,   20.4,   20.0,   19.8,   19.0,   18.0,   17.2,   16.9,   16.5,   15.8,   14.8,   14.0,   12.3,   10.8,  999.0,    8.7,    7.8,    7.5,  999.0,  999.0
1999/07/26 18:50,    9.2,   10.8,   12.0,   12.7,   12.3,   13.4,   14.2,   14.3,   14.3,   15.1,   17.5,   18.3,   19.4,   19.8,   19.3,   19.5,   18.7,   18.2,   17.6,   16.6,   16.5,   16.1,   15.4,   14.8,   13.3,   11.4,  999.0,    9.0,    8.8,  999.0,  999.0,  999.0
1999/07/26 19:00,    9.0,   10.2,   10.9,   12.0,   12.9,   13.4,   13.0,   13.9,   15.5,   16.6,   17.8,   18.8,   19.6,   19.5,   19.6,   20.0,   19.1,   18.4,   18.0,   17.1,  999.0,  999.0,   15.4,   14.6,   13.6,   11.5,    9.6,  999.0,    8.3,  999.0,  999.0,  999.0
1999/07/26 19:10,    7.7,    9.2,   10.7,   12.1,   12.7,   13.1,   14.2,   14.6,   14.9,   17.4,   19.8,   20.6,   20.9,   20.4,   21.0,   21.0,   21.1,   19.6,   19.8,   19.1,   17.7,   18.1,   17.2,   16.3,   15.4,   13.1,   11.6,    8.9,    8.6,    7.3,  999.0,  999.0
1999/07/26 19:20,    8.2,    9.0,    9.8,   10.5,   12.1,   13.3,   13.8,   14.4,   15.3,   16.7,   17.5,   18.8,   19.4,   19.8,   20.1,   19.6,   19.8,   18.9,   19.6,   19.0,   18.7,   18.4,   16.7,   16.2,   13.7,   11.1,    8.9,    7.8,    8.0,    6.9,  999.0,    4.2
1999/07/26 19:30,    6.3,    8.6,   11.0,   11.3,   11.8,   12.7,   14.1,   12.4,   13.8,   14.5,   15.2,   15.7,   15.9,   17.8,   18.2,   18.3,   18.3,   17.9,   17.6,   17.2,   17.3,   16.2,   15.9,   15.5,   13.5,   12.3,    7.8,    7.7,    8.5,  999.0,  999.0,  999.0
1999/07/26 19:40,    7.1,    8.3,    9.5,    9.1,   10.3,   10.1,   11.1,   12.0,   12.8,   11.6,   12.6,  999.0,   16.3,   16.3,   15.9,   17.0,   18.1,   18.2,   17.5,   18.0,   18.1,   18.5,   17.8,   16.8,   15.7,  999.0,   10.7,   10.5,    9.4,    6.4,  999.0,  999.0
1999/07/26 19:50,    4.8,    4.5,    9.3,   10.5,   12.7,   12.9,   14.5,   14.7,   15.2,   15.2,   15.7,   16.5,   16.7,   17.0,   17.7,   18.3,   19.0,   18.5,   17.5,   18.0,   18.3,   18.3,   17.5,   16.7,   14.9,   14.0,   10.7,   10.1,    9.5,  999.0,  999.0,  999.0
1999/07/26 20:00,   11.0,    8.9,   11.1,   13.8,   12.8,   15.4,   14.9,   14.8,   13.9,   14.2,   14.6,   15.3,   17.0,   18.2,   19.0,   19.6,   19.8,   19.1,   18.9,   18.8,   19.2,   18.7,   18.1,   16.3,   13.9,   12.1,   11.2,   11.0,   10.7,  999.0,  999.0,  999.0
1999/07/26 20:10,   10.8,   11.5,   13.0,   13.8,   15.2,   15.5,   15.8,   16.2,   16.4,   16.2,   16.5,   17.3,   18.2,   19.2,   19.5,   19.6,   20.3,   19.7,   18.7,   19.2,   18.7,   18.7,   18.0,   16.2,   13.7,   12.3,   10.7,  999.0,  999.0,    9.4,  999.0,  999.0
1999/07/26 20:20,   10.9,   13.1,   13.9,   14.8,   15.3,   15.7,   16.1,   16.5,   16.1,   16.3,   17.0,   17.6,   18.3,   18.4,   18.8,   19.9,   19.2,   18.6,   17.8,   18.7,   17.9,   17.3,   16.0,   15.5,   14.1,   12.3,   12.7,   11.4,    9.7,    8.9,    7.6,    7.3
1999/07/26 20:30,    9.5,   10.8,   12.8,   12.9,   13.5,   14.2,   15.8,   16.4,   16.8,   17.4,   17.5,   18.0,   18.1,   18.3,   18.3,   18.9,   18.6,   18.5,   18.9,   17.7,   17.4,   15.7,   15.4,   15.2,   14.3,   13.1,   11.3,   10.9,   10.4,    8.7,    7.5,    6.9
1999/07/26 20:40,   11.7,   13.0,   13.5,   13.5,   14.2,   14.9,   16.4,   16.4,   17.1,   17.7,   17.9,   18.4,   17.7,   18.2,   18.8,   18.7,   18.9,   18.9,   18.8,   18.5,   17.8,   16.7,   16.5,   16.0,   14.8,   13.1,   11.2,  999.0,   11.4,   11.2,  999.0,    5.1
1999/07/26 20:50,   11.4,   13.0,   14.1,   15.1,   15.4,   16.3,   16.4,   16.9,   17.0,   17.6,   17.6,   17.9,   18.1,   18.7,   19.9,   19.3,   20.2,   19.8,   20.0,   19.5,  999.0,   16.9,   17.0,   16.5,   15.7,   13.0,   12.3,   13.0,   12.8,   11.0,    9.3,  999.0
1999/07/26 21:00,   11.1,   11.1,   13.4,   14.3,   14.6,   15.8,   16.5,   16.8,   16.9,   17.2,   18.3,   19.0,   19.5,   19.5,   20.2,   20.9,   20.3,   21.0,   20.3,   20.5,   19.8,   18.5,   16.9,   15.3,   13.7,   11.8,   11.7,  999.0,  999.0,  999.0,  999.0,  999.0
1999/07/26 21:10,   11.2,   12.2,   12.6,   13.7,   14.7,   15.2,   16.2,   17.2,   17.5,   17.5,   18.1,   18.6,   19.0,   20.0,   20.4,   20.1,   20.1,   20.0,   19.3,   18.8,   18.8,   18.2,   17.0,   15.9,   14.7,   13.3,   12.8,   12.8,   12.2,   11.8,  999.0,  999.0
1999/07/26 21:20,   12.7,   13.8,   14.7,   15.6,   16.0,   15.7,   16.7,   17.4,   18.3,   18.7,   19.3,   18.9,   17.9,   18.7,   19.6,   19.6,   19.6,   19.7,   19.7,   19.7,   19.4,   18.7,   18.0,   16.3,   15.0,   13.8,   12.6,   13.0,   12.5,   10.6,  999.0,  999.0
1999/07/26 21:30,   12.9,   14.3,   15.4,   16.0,   16.8,   17.6,   17.8,   18.5,   19.3,   19.0,   18.7,   19.2,   19.3,   18.4,   18.5,   19.4,   20.4,   20.3,   20.7,   20.6,   19.8,   18.8,   18.6,   16.2,   15.1,   13.0,   12.3,   13.0,   12.4,   11.4,   10.3,    7.6
1999/07/26 21:40,   12.1,   13.8,   16.1,   16.9,   18.2,   18.3,   18.2,   18.7,   19.0,   19.2,   20.0,   20.5,   20.4,   20.6,   21.8,   21.6,   21.1,   21.0,   21.0,   21.2,   19.5,   19.0,   18.2,   16.7,  999.0,   13.3,   13.6,   12.2,   10.4,    9.4,    9.4,    7.5
1999/07/26 21:50,   12.6,   13.7,   14.7,   15.2,   15.6,   15.3,   15.3,   16.8,   18.0,   17.8,   18.4,   19.0,   19.5,   20.3,   21.0,   21.4,   22.0,   22.0,   21.9,   21.9,   20.7,   20.1,   19.7,   17.7,   16.2,   15.1,   14.4,   12.9,   11.1,    9.6,    9.6,    8.8
1999/07/26 22:00,   12.7,   13.9,   15.1,   15.3,   14.9,   15.5,   17.1,   17.5,   16.9,   17.6,   17.2,   18.5,   19.0,   20.0,   21.0,   21.4,   22.2,   21.7,   21.8,   22.4,   22.5,   20.4,   20.8,   20.3,   19.0,   17.4,   16.0,   14.0,  999.0,  999.0,    8.9,    8.6
1999/07/26 22:10,   13.6,   15.2,   16.1,   16.3,   16.1,   16.1,   16.8,   17.7,   17.7,   17.7,   18.6,   19.9,   20.0,   21.0,   21.1,   21.1,   21.5,   22.4,   21.9,   21.7,   22.1,   20.7,   20.0,   18.4,   17.2,   15.6,   14.1,   11.7,   10.0,    8.6,    7.9,    8.1
1999/07/26 22:20,   14.9,   16.3,   16.3,   16.2,   17.1,   17.3,   17.1,   16.9,   16.7,   16.7,   18.4,   20.0,   20.2,   20.9,   21.2,   20.7,   20.8,   21.4,   20.7,   20.7,   21.0,   20.1,   19.4,   17.5,   15.9,   14.6,   12.5,   11.8,   10.6,    9.7,    9.7,    8.8
1999/07/26 22:30,   14.2,   15.7,   16.5,   16.5,   16.4,   16.8,   17.3,   18.6,   18.9,   20.0,   20.8,   21.0,   21.3,   20.1,   18.3,   17.9,   19.3,   19.9,   19.7,   19.6,   20.0,   20.5,   19.6,   17.3,   16.6,   15.7,   14.6,   12.5,   10.8,    8.7,    7.2,    6.9
1999/07/26 22:40,   13.5,   15.0,   15.6,   16.2,   16.5,   16.8,   17.2,   17.6,   17.6,   18.2,   18.7,   19.6,   19.2,   19.5,   19.5,   19.0,   18.1,   17.7,   17.7,   17.5,   18.4,   18.2,   18.3,   17.8,   15.6,   15.2,   14.1,   12.6,   11.2,    9.8,    7.8,    7.2
1999/07/26 22:50,   14.3,  999.0,   15.7,   13.7,   13.8,   14.2,   14.9,   14.7,   17.2,   16.3,   18.0,   17.4,   18.2,   17.9,   18.8,   20.1,   20.5,  999.0,  999.0,   20.7,   19.3,   18.9,   18.5,   18.1,   17.8,  999.0,   13.7,   12.1,   11.1,   10.0,  999.0,    7.9
1999/07/26 23:00,   12.6,  999.0,   15.2,   16.4,   15.8,   16.5,   16.4,   18.2,   17.9,   17.5,   17.1,   16.1,   16.4,   17.3,   18.3,   18.7,   20.0,   20.4,   20.5,   20.3,   19.2,   17.6,   15.9,   15.0,   14.5,   14.6,   13.7,   12.1,    9.6,    9.3,    8.8,    6.8
1999/07/26 23:10,   15.6,   16.6,   16.0,   15.7,   16.1,   16.2,   16.9,   16.7,   17.6,   17.8,   17.8,   18.4,   18.4,   17.9,   18.4,   19.9,   19.7,   20.1,   21.0,   20.7,   20.0,   19.0,   18.1,   16.2,   14.3,   12.5,   11.5,   10.0,    9.7,    7.1,    5.6,    5.6
1999/07/26 23:20,   15.0,   15.7,   15.8,   15.4,   16.2,   16.3,   16.9,   17.8,   17.9,   17.9,   18.3,   18.9,   19.4,   19.6,   19.5,   20.3,   20.7,   20.1,   20.4,   19.7,   19.5,   18.6,   17.7,   17.3,   15.9,   14.5,   12.0,   11.1,   10.3,    8.1,    5.8,    5.2
1999/07/26 23:30,   14.9,   15.9,   16.0,   16.5,   16.1,   17.1,   18.1,   18.3,   18.5,   18.9,   20.0,   20.6,   21.3,   22.0,   22.8,   23.3,   22.9,   22.4,   22.6,   21.9,   21.5,   20.8,   18.5,   17.4,   17.2,   16.5,   13.9,   11.2,  999.0,  999.0,    3.5,    3.2
1999/07/26 23:40,   14.4,   15.8,   16.4,   17.0,   17.3,   18.0,   18.5,   18.3,   17.5,   17.2,   16.9,   18.0,   18.4,   19.4,   20.1,   20.2,   21.5,   21.8,   22.1,   21.4,   20.7,   19.5,   18.6,   17.4,   16.3,   15.4,   14.0,   11.0,    8.6,  999.0,    4.3,    3.4
1999/07/26 23:50,   14.6,   15.3,   16.6,   17.2,   17.8,   18.7,   18.9,   17.9,   18.7,   19.0,   18.8,   19.3,   20.1,   21.2,   22.1,   23.0,   22.7,   21.5,   21.5,   21.9,   20.7,   19.1,   18.7,   17.9,   16.3,   15.1,   12.0,    9.4,    7.8,  999.0,  999.0,    3.8
